User: anonymous   Login
Location: Coupvray
(48.8929°N, 2.7967°E)
Time: 14:11:18
(UTC+00:00)
Language:

ISS - Orbit

View from above orbital plane
View from above orbital plane
View from above satellite
View from above satellite

Ground track
Ground track

The orbit data is extracted from the following two-line orbital elements,

1 25544U 98067A   20275.51956001  .00016717  00000-0  10270-3 0  9011
2 25544  51.6443 182.3318 0001294 100.3462 259.7834 15.48834285  8490
Epoch (UTC): 01 October 2020 12:28:09
Eccentricity: 0.0001294
inclination: 51.6443°
perigee height: 419 km
apogee height: 421 km
right ascension of ascending node: 182.3318°
argument of perigee: 100.3462°
revolutions per day: 15.48834285
mean anomaly at epoch: 259.7834°
orbit number at epoch: 849

The dashed part of the orbit path shows where the satellite is in the earth's shadow,  

DLR